Flag Weather past 2 weeks in Memmingen, Bavaria, Germany

Now
40 °F

Low clouds.


Feels Like: 40 °F
Forecast: 35 / 46 °F
Wind: 1 mph from East

Location: Kempten

Current Time: Nov 26, 2014 at 12:17:49 AM

Latest Report: Nov 26, 2014 at 12:00 AM


Visibility: 3 mi

Pressure: 30.12 "Hg

Humidity: 95%

Dew point: 39 °F

Location of MemmingenLocation

Historic Weather in Memmingen — Graph

°F

Memmingen temperature yesterday

Maximum temperature yesterday: 44 °F (at 9:00 AM)
Minimum temperature yesterday: 38 °F (at 12:00 AM)
Average temperature yesterday: 42 °F

Past Weeks' High & Low Weather Summary

 TemperatureHumidityPressure
High60 °F (Nov 23, 2:00 PM)100% (Nov 15, 8:00 AM)30.37 "Hg (Nov 15, 8:00 AM)
Low28 °F (Nov 20, 5:00 AM)46% (Nov 23, 2:00 PM)29.53 "Hg (Nov 15, 11:00 PM)
Average42 °F89%29.97 "Hg
* Reported Nov 10 11:00 PM — Nov 25 11:00 PM, Memmingen, Weather by CustomWeather, © 2014

Note: Actual official high and low records may vary slightly from our data, if they occured in-between our weather recording intervals... More about our weather records

Advertising

Memmingen weather history for previous 24 hours

 ConditionsComfort  
Time TempWeatherWind HumidityBarometerVisibility
11:00 PM
Nov 25
40 °FFog.1 mph94%30.12 "Hg3 mi
9:00 PM40 °FLow clouds.3 mph93%30.12 "Hg10 mi
8:00 PM41 °FLow clouds.2 mph94%30.12 "Hg7 mi
7:00 PM42 °FLow clouds.2 mph95%30.12 "Hg5 mi
6:00 PM42 °FLow clouds.2 mph94%30.13 "Hg5 mi
5:00 PM43 °FLow clouds.2 mph92%30.13 "Hg7 mi
3:00 PM43 °FLow clouds.2 mph92%30.15 "Hg7 mi
2:00 PM43 °FLow clouds.3 mph92%30.16 "Hg10 mi
1:00 PM43 °FLow clouds.2 mph94%30.17 "Hg6 mi
12:00 PM44 °FLow clouds.2 mph93%30.18 "Hg6 mi
11:00 AM44 °FFog.2 mph94%30.20 "Hg4 mi
9:00 AM44 °FLow clouds.1 mph94%30.20 "Hg8 mi
8:00 AM43 °FLow clouds.1 mph96%30.21 "Hg7 mi
7:00 AM43 °FLow clouds.1 mph98%30.22 "Hg5 mi
6:00 AM42 °FFog.No wind98%30.23 "Hg3 mi
5:00 AM42 °FFog.1 mph98%30.25 "Hg4 mi
3:00 AM42 °FLow clouds.1 mph100%30.26 "Hg1 mi
2:00 AM40 °FLow clouds.2 mph98%30.27 "Hg3 mi
1:00 AM39 °FLow clouds.1 mph100%30.27 "Hg0 mi
12:00 AM38 °FPassing clouds.1 mph99%30.29 "Hg1 mi
Weather by CustomWeather, © 2014

See weather overviewHow to use our weather pages